EWG92W EDDL-EDDH

Flight info

Callsign EWG92W
Flight time 0h 37m
Altitude 31000
Route MEVEL4T/23L MEVEL Y850 BASUM/N0453F300 Y850 PIXUR/N0446F290 Y850 MUBZI M105 RIBSO RIBSO3P
Aircraft A20N/M-SDE2E3FGHIRWXY/LB1

Departure

Time 2026-05-04 18:41
Airport Düsseldorf Airport (EDDL)

Arrival

Time 2026-05-04 19:18
Airport Hamburg Helmut Schmidt Airport (EDDH)
Time Latitude Longitude Altitude Speed Heading
2026-05-04 17:25 51.28149 6.76546 128 ft 0 kts 97°
2026-05-04 18:24 51.28149 6.76545 128 ft 0 kts 97°
2026-05-04 18:24 51.28152 6.76523 128 ft 2 kts 107°
2026-05-04 18:24 51.28157 6.76501 127 ft 2 kts 118°
2026-05-04 18:25 51.28165 6.76482 126 ft 2 kts 130°
2026-05-04 18:25 51.28176 6.76465 126 ft 2 kts 142°
2026-05-04 18:25 51.28188 6.76452 125 ft 2 kts 154°
2026-05-04 18:25 51.28202 6.76443 125 ft 2 kts 165°
2026-05-04 18:26 51.28216 6.76439 125 ft 2 kts 176°
2026-05-04 18:26 51.28231 6.76440 124 ft 2 kts 188°
2026-05-04 18:26 51.28245 6.76446 124 ft 2 kts 210°
2026-05-04 18:26 51.28257 6.76461 124 ft 2 kts 228°
2026-05-04 18:27 51.28266 6.76480 124 ft 2 kts 238°
2026-05-04 18:27 51.28274 6.76499 125 ft 2 kts 235°
2026-05-04 18:27 51.28283 6.76518 125 ft 2 kts 236°
2026-05-04 18:27 51.28291 6.76538 125 ft 2 kts 236°
2026-05-04 18:28 51.28300 6.76557 125 ft 2 kts 236°
2026-05-04 18:28 51.28308 6.76577 125 ft 2 kts 236°
2026-05-04 18:28 51.28317 6.76597 126 ft 2 kts 236°
2026-05-04 18:28 51.28324 6.76614 126 ft 0 kts 236°
2026-05-04 18:30 51.28321 6.76606 126 ft 2 kts 235°
2026-05-04 18:31 51.28307 6.76573 125 ft 5 kts 236°
2026-05-04 18:31 51.28305 6.76506 124 ft 8 kts 299°
2026-05-04 18:31 51.28366 6.76519 124 ft 11 kts 46°
2026-05-04 18:31 51.28414 6.76619 125 ft 11 kts 54°
2026-05-04 18:32 51.28468 6.76735 125 ft 13 kts 52°
2026-05-04 18:32 51.28527 6.76858 126 ft 14 kts 52°
2026-05-04 18:32 51.28592 6.76993 125 ft 16 kts 52°
2026-05-04 18:32 51.28666 6.77149 124 ft 18 kts 53°
2026-05-04 18:33 51.28725 6.77275 126 ft 13 kts 53°
2026-05-04 18:33 51.28785 6.77404 124 ft 15 kts 52°
2026-05-04 18:33 51.28856 6.77551 123 ft 17 kts 52°
2026-05-04 18:33 51.28933 6.77708 124 ft 17 kts 53°
2026-05-04 18:34 51.29011 6.77871 124 ft 18 kts 53°
2026-05-04 18:34 51.29085 6.78033 127 ft 18 kts 55°
2026-05-04 18:34 51.29163 6.78193 127 ft 18 kts 53°
2026-05-04 18:34 51.29234 6.78340 131 ft 15 kts 52°
2026-05-04 18:35 51.29293 6.78463 135 ft 11 kts 53°
2026-05-04 18:35 51.29303 6.78485 136 ft 0 kts 53°
2026-05-04 18:37 51.29307 6.78492 136 ft 3 kts 53°
2026-05-04 18:37 51.29337 6.78545 138 ft 8 kts 35°
2026-05-04 18:37 51.29388 6.78575 139 ft 7 kts
2026-05-04 18:37 51.29437 6.78568 140 ft 4 kts 355°
2026-05-04 18:38 51.29444 6.78567 140 ft 0 kts 355°
2026-05-04 18:38 51.29453 6.78566 140 ft 4 kts 355°
2026-05-04 18:38 51.29504 6.78539 140 ft 11 kts 318°
2026-05-04 18:39 51.29494 6.78416 138 ft 13 kts 237°
2026-05-04 18:39 51.29482 6.78391 137 ft 0 kts 232°
2026-05-04 18:40 51.29440 6.78305 134 ft 38 kts 232°
2026-05-04 18:41 51.29122 6.77639 124 ft 110 kts 232°
2026-05-04 18:41 51.28537 6.76412 128 ft 165 kts 230°
2026-05-04 18:41 51.27806 6.74891 536 ft 178 kts 232°
2026-05-04 18:41 51.27078 6.73314 1273 ft 178 kts 233°
2026-05-04 18:42 51.26419 6.71668 2021 ft 180 kts 246°
2026-05-04 18:42 51.26284 6.69667 2564 ft 193 kts 284°
2026-05-04 18:42 51.27101 6.67954 3046 ft 205 kts 329°
2026-05-04 18:42 51.28479 6.67499 3588 ft 210 kts
2026-05-04 18:43 51.29938 6.67829 4164 ft 218 kts 13°
2026-05-04 18:43 51.31488 6.68368 4533 ft 239 kts 11°
2026-05-04 18:43 51.33206 6.68814 4944 ft 260 kts
2026-05-04 18:43 51.35065 6.69136 5437 ft 278 kts
2026-05-04 18:44 51.37029 6.69386 6132 ft 287 kts
2026-05-04 18:44 51.38354 6.69527 6692 ft 290 kts
2026-05-04 18:44 51.41032 6.69593 7893 ft 292 kts 359°
2026-05-04 18:44 51.43068 6.69591 8773 ft 294 kts 359°
2026-05-04 18:45 51.45133 6.69586 9632 ft 297 kts 359°
2026-05-04 18:45 51.47179 6.69588 10431 ft 301 kts 359°
2026-05-04 18:45 51.49327 6.69590 10920 ft 317 kts 359°
2026-05-04 18:45 51.51608 6.69592 11302 ft 335 kts 359°
2026-05-04 18:46 51.53985 6.69595 11666 ft 353 kts 359°
2026-05-04 18:46 51.56540 6.69600 12004 ft 370 kts 359°
2026-05-04 18:46 51.59155 6.69665 12602 ft 378 kts
2026-05-04 18:46 51.61680 6.70776 13274 ft 384 kts 26°
2026-05-04 18:47 51.63805 6.73334 13982 ft 387 kts 48°
2026-05-04 18:47 51.65446 6.76768 14687 ft 389 kts 54°
2026-05-04 18:47 51.67008 6.80296 15336 ft 393 kts 55°
2026-05-04 18:47 51.68613 6.83890 15963 ft 397 kts 54°
2026-05-04 18:48 51.70266 6.87539 16581 ft 402 kts 54°
2026-05-04 18:48 51.71928 6.91172 17181 ft 406 kts 54°
2026-05-04 18:48 51.73583 6.94785 17766 ft 409 kts 54°
2026-05-04 18:48 51.75299 6.98532 18356 ft 413 kts 54°
2026-05-04 18:49 51.77010 7.02276 18799 ft 417 kts 54°
2026-05-04 18:49 51.78730 7.06053 19138 ft 421 kts 54°
2026-05-04 18:49 51.80463 7.09864 19719 ft 424 kts 54°
2026-05-04 18:49 51.82193 7.13672 20279 ft 427 kts 54°
2026-05-04 18:50 51.83970 7.17572 20790 ft 431 kts 53°
2026-05-04 18:50 51.85847 7.21357 21283 ft 435 kts 50°
2026-05-04 18:50 51.87871 7.24992 21754 ft 440 kts 47°
2026-05-04 18:50 51.89998 7.28606 22251 ft 443 kts 46°
2026-05-04 18:51 51.92151 7.32223 22725 ft 447 kts 46°
2026-05-04 18:51 51.94318 7.35867 23164 ft 451 kts 46°
2026-05-04 18:51 51.96492 7.39536 23598 ft 455 kts 47°
2026-05-04 18:51 51.98675 7.43235 24038 ft 458 kts 47°
2026-05-04 18:52 52.00897 7.47014 24422 ft 463 kts 47°
2026-05-04 18:52 52.03112 7.50787 24805 ft 467 kts 47°
2026-05-04 18:52 52.05374 7.54649 25201 ft 471 kts 46°
2026-05-04 18:52 52.07634 7.58513 25557 ft 475 kts 46°
2026-05-04 18:53 52.09924 7.62431 25927 ft 479 kts 46°
2026-05-04 18:53 52.12237 7.66320 26288 ft 482 kts 46°
2026-05-04 18:53 52.14617 7.70270 26631 ft 485 kts 46°
2026-05-04 18:53 52.16976 7.74190 26998 ft 486 kts 46°
2026-05-04 18:54 52.19352 7.78166 27474 ft 486 kts 46°
2026-05-04 18:54 52.21674 7.82107 27962 ft 485 kts 46°
2026-05-04 18:54 52.23989 7.86064 28430 ft 484 kts 46°
2026-05-04 18:54 52.26310 7.90043 28892 ft 483 kts 46°
2026-05-04 18:55 52.28626 7.94019 29336 ft 483 kts 46°
2026-05-04 18:55 52.33319 8.01912 30022 ft 485 kts 39°
2026-05-04 18:55 52.36143 8.04920 30076 ft 479 kts 26°
2026-05-04 18:56 52.39093 8.07383 29620 ft 478 kts 25°
2026-05-04 18:56 52.42065 8.09781 28646 ft 483 kts 24°
2026-05-04 18:56 52.45081 8.12242 27771 ft 485 kts 25°
2026-05-04 18:56 52.48093 8.14754 27358 ft 489 kts 26°
2026-05-04 18:57 52.51130 8.17329 26956 ft 489 kts 26°
2026-05-04 18:57 52.54110 8.19900 26554 ft 486 kts 28°
2026-05-04 18:57 52.56845 8.23152 26134 ft 484 kts 43°
2026-05-04 18:57 52.59148 8.27167 25741 ft 481 kts 49°
2026-05-04 18:58 52.61319 8.31357 25346 ft 478 kts 50°
2026-05-04 18:58 52.63458 8.35500 24942 ft 474 kts 49°
2026-05-04 18:58 52.65605 8.39572 24550 ft 470 kts 49°
2026-05-04 18:58 52.67768 8.43595 24154 ft 467 kts 48°
2026-05-04 18:59 52.69922 8.47546 23762 ft 463 kts 47°
2026-05-04 18:59 52.72073 8.51463 23376 ft 460 kts 47°
2026-05-04 18:59 52.74225 8.55373 22991 ft 457 kts 47°
2026-05-04 18:59 52.76353 8.59235 22608 ft 454 kts 47°
2026-05-04 19:00 52.78450 8.63040 22231 ft 451 kts 47°
2026-05-04 19:00 52.80570 8.66891 21843 ft 448 kts 48°
2026-05-04 19:00 52.82656 8.70686 21445 ft 446 kts 48°
2026-05-04 19:00 52.84727 8.74458 20944 ft 443 kts 48°
2026-05-04 19:01 52.86770 8.78186 20417 ft 438 kts 48°
2026-05-04 19:01 52.88823 8.81937 19926 ft 434 kts 47°
2026-05-04 19:01 52.90843 8.85634 19401 ft 430 kts 47°
2026-05-04 19:01 52.92829 8.89274 19011 ft 425 kts 47°
2026-05-04 19:02 52.94802 8.92892 18973 ft 426 kts 47°
2026-05-04 19:02 52.96786 8.96534 18962 ft 427 kts 47°
2026-05-04 19:02 52.98778 9.00201 18913 ft 427 kts 47°
2026-05-04 19:02 53.00767 9.03866 18664 ft 424 kts 47°
2026-05-04 19:03 53.02730 9.07487 18436 ft 422 kts 47°
2026-05-04 19:03 53.04696 9.11122 18202 ft 421 kts 47°
2026-05-04 19:03 53.06656 9.14749 17959 ft 420 kts 47°
2026-05-04 19:03 53.08585 9.18323 17705 ft 418 kts 47°
2026-05-04 19:04 53.10512 9.21899 17446 ft 417 kts 47°
2026-05-04 19:04 53.12461 9.25523 17175 ft 414 kts 47°
2026-05-04 19:04 53.14369 9.29075 16945 ft 412 kts 47°
2026-05-04 19:04 53.16263 9.32609 16694 ft 411 kts 47°
2026-05-04 19:05 53.18159 9.36147 16432 ft 408 kts 47°
2026-05-04 19:05 53.20058 9.39697 16188 ft 406 kts 47°
2026-05-04 19:05 53.21934 9.43213 15958 ft 405 kts 47°
2026-05-04 19:05 53.23798 9.46708 15708 ft 404 kts 47°
2026-05-04 19:06 53.25643 9.50170 15449 ft 402 kts 47°
2026-05-04 19:06 53.27496 9.53655 15194 ft 400 kts 46°
2026-05-04 19:06 53.29337 9.57121 14936 ft 399 kts 46°
2026-05-04 19:06 53.31189 9.60614 14695 ft 397 kts 46°
2026-05-04 19:07 53.32997 9.64027 14438 ft 395 kts 46°
2026-05-04 19:07 53.34811 9.67459 14191 ft 393 kts 47°
2026-05-04 19:07 53.36629 9.70901 13956 ft 392 kts 47°
2026-05-04 19:07 53.38428 9.74314 13689 ft 391 kts 47°
2026-05-04 19:08 53.40244 9.77763 13439 ft 389 kts 47°
2026-05-04 19:08 53.42006 9.81113 13167 ft 388 kts 47°
2026-05-04 19:08 53.43784 9.84496 12915 ft 386 kts 47°
2026-05-04 19:08 53.45549 9.87861 12668 ft 384 kts 47°
2026-05-04 19:09 53.47318 9.91239 12419 ft 383 kts 47°
2026-05-04 19:09 53.49057 9.94563 12172 ft 382 kts 47°
2026-05-04 19:09 53.50820 9.97939 11921 ft 381 kts 47°
2026-05-04 19:09 53.52563 10.01281 11673 ft 380 kts 47°
2026-05-04 19:10 53.54292 10.04602 11358 ft 381 kts 47°
2026-05-04 19:10 53.56042 10.07962 10626 ft 374 kts 47°
2026-05-04 19:10 53.57704 10.11163 9883 ft 361 kts 47°
2026-05-04 19:10 53.59328 10.14299 9143 ft 348 kts 47°
2026-05-04 19:11 53.60862 10.17267 8578 ft 332 kts 47°
2026-05-04 19:11 53.62350 10.20142 8000 ft 318 kts 47°
2026-05-04 19:11 53.63760 10.22873 7427 ft 306 kts 47°
2026-05-04 19:11 53.65145 10.25559 6846 ft 297 kts 47°
2026-05-04 19:12 53.66470 10.28128 6273 ft 290 kts 47°
2026-05-04 19:12 53.69058 10.33153 5175 ft 279 kts 46°
2026-05-04 19:12 53.70527 10.35222 4956 ft 271 kts 22°
2026-05-04 19:13 53.72327 10.35896 4948 ft 266 kts 355°
2026-05-04 19:13 53.74061 10.35129 4656 ft 258 kts 327°
2026-05-04 19:13 53.75383 10.33157 4199 ft 256 kts 301°
2026-05-04 19:13 53.75964 10.30334 3784 ft 255 kts 274°
2026-05-04 19:14 53.75924 10.27362 3433 ft 255 kts 266°
2026-05-04 19:14 53.75479 10.24491 3169 ft 250 kts 243°
2026-05-04 19:14 53.74541 10.22091 3006 ft 242 kts 233°
2026-05-04 19:14 53.73511 10.19936 2962 ft 229 kts 231°
2026-05-04 19:15 53.72506 10.17935 2774 ft 216 kts 231°
2026-05-04 19:15 53.71555 10.16041 2477 ft 208 kts 231°
2026-05-04 19:15 53.70644 10.14211 2216 ft 197 kts 231°
2026-05-04 19:15 53.69793 10.12494 1998 ft 184 kts 231°
2026-05-04 19:16 53.69000 10.10889 1762 ft 175 kts 231°
2026-05-04 19:16 53.68193 10.09255 1513 ft 179 kts 231°
2026-05-04 19:16 53.67430 10.07715 1245 ft 164 kts 232°
2026-05-04 19:16 53.66726 10.06285 976 ft 152 kts 232°
2026-05-04 19:17 53.66089 10.04988 740 ft 141 kts 232°
2026-05-04 19:17 53.65477 10.03753 619 ft 136 kts 232°
2026-05-04 19:17 53.64866 10.02538 442 ft 136 kts 232°
2026-05-04 19:17 53.64273 10.01344 277 ft 136 kts 233°
2026-05-04 19:18 53.63673 10.00121 124 ft 135 kts 233°
2026-05-04 19:18 53.63101 9.98950 62 ft 113 kts 231°
2026-05-04 19:18 53.62716 9.98161 62 ft 62 kts 229°
2026-05-04 19:18 53.62523 9.97809 62 ft 26 kts 204°
2026-05-04 19:19 53.62431 9.97876 62 ft 0 kts 102°
2026-05-04 19:19 53.62431 9.97879 62 ft 1 kts 102°
2026-05-04 19:20 53.62430 9.97911 62 ft 4 kts 86°
2026-05-04 19:20 53.62437 9.97982 62 ft 8 kts 77°
2026-05-04 19:20 53.62471 9.98098 62 ft 13 kts 57°
2026-05-04 19:20 53.62532 9.98231 62 ft 15 kts 49°
2026-05-04 19:21 53.62603 9.98375 62 ft 16 kts 50°
2026-05-04 19:21 53.62682 9.98536 62 ft 18 kts 50°
2026-05-04 19:21 53.62767 9.98705 62 ft 19 kts 49°
2026-05-04 19:21 53.62851 9.98881 62 ft 19 kts 50°
2026-05-04 19:22 53.62937 9.99052 62 ft 19 kts 49°
2026-05-04 19:22 53.63015 9.99208 62 ft 15 kts 51°
2026-05-04 19:22 53.63066 9.99321 62 ft 6 kts 55°
2026-05-04 19:22 53.63088 9.99374 62 ft 0 kts 56°
2026-05-04 19:23 53.63091 9.99383 62 ft 2 kts 56°
2026-05-04 19:23 53.63108 9.99426 62 ft 7 kts 55°
2026-05-04 19:23 53.63153 9.99533 62 ft 15 kts 54°
2026-05-04 19:24 53.63232 9.99688 62 ft 18 kts 47°
2026-05-04 19:24 53.63321 9.99849 61 ft 19 kts 50°
2026-05-04 19:24 53.63394 9.99999 62 ft 11 kts 50°
2026-05-04 19:24 53.63414 10.00042 62 ft 0 kts 54°
2026-05-04 19:26 53.63417 10.00048 62 ft 1 kts 55°
2026-05-04 19:26 53.63426 10.00074 62 ft 3 kts 69°
2026-05-04 19:26 53.63416 10.00139 62 ft 9 kts 139°
2026-05-04 19:26 53.63338 10.00165 62 ft 13 kts 176°
2026-05-04 19:27 53.63251 10.00174 62 ft 11 kts 177°
2026-05-04 19:27 53.63202 10.00241 62 ft 9 kts 93°
2026-05-04 19:27 53.63206 10.00350 62 ft 7 kts 86°
2026-05-04 19:27 53.63207 10.00361 62 ft 0 kts 87°